Regional Weather Roundup
Issued by NWS

Home | Current Version | Previous Version | Text Only | Print | Product List | Glossary On
Versions: 1 2 3 4 5 6 7 8 9 10 11 12 13 14 15 16 17 18 19 20 21 22 23 24 25 26 27
000
ASUS46 KSEW 281010
RWRWA

WASHINGTON REGIONAL WEATHER ROUNDUP
NATIONAL WEATHER SERVICE SEATTLE WA
300 AM PDT WED JUN 28 2017

NOTE:"FAIR" INDICATES FEW OR NO CLOUDS BELOW 12,000 FEET WITH NO
SIGNIFICANT WEATHER AND/OR OBSTRUCTIONS TO VISIBILITY.

WAZ507-509-555>559-281100-
SEATTLE, TACOMA, EVERETT, AND VICINITY

CITY           SKY/WX    TMP DP  RH WIND       PRES   REMARKS
EVERETT        MOCLDY    56  51  84 CALM      29.99R
BOEING FIELD   PTCLDY    57  53  86 S5        29.99S
RENTON         MOCLDY    58  52  80 S8        29.99S
SEATAC AIRPORT MOCLDY    55  51  86 S8        29.99S
JBLM-MCCHORD   CLEAR     53  53  99 S3        30.00S
PUYALLUP       CLOUDY    52  52 100 CALM      30.01R
BREMERTON      PTCLDY    48  46  93 SW5       29.99S
JBLM-FT LEWIS  CLEAR     52  51  99 SE3       30.00R
TACOMA NARROWS CLEAR     52  50  93 S5        30.00R
$$

WAZ001-503-506-510-514-515-281100-
NORTH INTERIOR

CITY           SKY/WX    TMP DP  RH WIND       PRES   REMARKS
BELLINGHAM     PTCLDY    58  53  84 S9        29.95S
FRIDAY HARBOR  CLEAR     43  32  65 CALM      29.97R
EASTSOUND      CLEAR     54  52  94 CALM      29.96R
PORT ANGELES   CLEAR     52  51  97 W10       29.98S
EDIZ HOOK      FAIR      53  50  90 W9G17     29.98S
PORT TOWNSEND    N/A     46  45  93 CALM      29.98S
NAS WHIDBEY    PTCLDY    55  48  77 SW10      30.00S
ARLINGTON      CLEAR     50  48  93 N3        29.98S
BURLINGTON     PTCLDY    52  50  93 CALM      29.97S
$$

WAZ020-022-039-040-504-511-512-281100-
SOUTHWEST INTERIOR

CITY           SKY/WX    TMP DP  RH WIND       PRES   REMARKS
SHELTON        NOT AVBL
OLYMPIA        CLEAR     51  49  92 CALM      30.00S
CHEHALIS       MOCLDY    52  50  93 SW3       30.01S
KELSO          CLOUDY    58  50  75 NW5       30.02S
VANCOUVER      CLEAR     56  50  80 N3        30.01R
SCAPPOOSE, OR  CLEAR     54  48  80 N6        30.01R
PORTLAND, OR   PTCLDY    56  49  77 N3        30.02R
$$

WAZ021-516-517-281100-
WASHINGTON COAST

CITY           SKY/WX    TMP DP  RH WIND       PRES   REMARKS
FORKS          CLOUDY    54  51  90 CALM      30.00F
HOQUIAM        CLOUDY    56  52  86 NW6       30.01S
ASTORIA, OR    CLOUDY    57  50  77 W5        30.02F
$$

WAZ019-023-024-040-567>569-281100-
CASCADE MOUNTAINS AND COLUMBIA GORGE

CITY           SKY/WX    TMP DP  RH WIND       PRES   REMARKS
STAMPEDE PASS  FOG       46  46 100 VRB5      29.99S VSB 1/4
TROUTDALE, OR  MOCLDY    58  50  75 NW7       30.01S
HOOD RIVER, OR SUNNY     59  50  72 W10       29.92S
THE DALLES, OR CLEAR     65  51  60 NW15      29.87R
$$

WAZ026-027-041>044-520-521-281100-
EAST SLOPES

CITY           SKY/WX    TMP DP  RH WIND       PRES   REMARKS
OMAK           CLEAR     59  40  49 NW8       29.77S
WENATCHEE      CLEAR     64  41  42 NW18      29.81S
ELLENSBURG     CLEAR     60  43  53 NW20G31   29.85S
YAKIMA         CLEAR     67  44  43 N14       29.82S
SUNNYSIDE ARPT SUNNY     60  41  49 W5        29.81S
YAKIMA TC      FAIR      64  37  35 N7        29.82S
$$

WAZ028-034-035-281100-
COLUMBIA BASIN

CITY           SKY/WX    TMP DP  RH WIND       PRES   REMARKS
EPHRATA        CLEAR     65  36  34 NW7       29.75S
MOSES LAKE     PTCLDY    62  43  49 W8        29.77R
PASCO          CLEAR     65  48  54 VRB3      29.80R
RICHLAND ARPT  SUNNY     62  52  71 CALM      29.79S
HERMISTON, OR  CLEAR     64  44  48 SW15      29.82R
$$

WAZ036>038-281100-
NORTHEAST WASHINGTON

CITY           SKY/WX    TMP DP  RH WIND       PRES   REMARKS
SPOKANE GEIGER MOCLDY    59  42  53 CALM      29.80S
SPOKANE FELTS  PTCLDY    59  45  59 NE5       29.79F
FAIRCHILD AFB  CLEAR     54  42  63 E5        29.79S
COEURDALENE,ID PTCLDY    59  47  64 S9        29.80F
DEER PARK      PTCLDY    49  43  80 SE5       29.79S
$$

WAZ029>033-281100-
SOUTHEAST WASHINGTON

CITY           SKY/WX    TMP DP  RH WIND       PRES   REMARKS
PULLMAN        CLEAR     51  43  74 CALM      29.85S
LEWISTON, ID   CLEAR     61  45  55 CALM      29.79S
WALLA WALLA    CLEAR     64  46  52 S12       29.84S
PENDLETON, OR  CLEAR     58  45  62 S3        29.85S
$$




USA.gov is the U.S. government's official web portal to all federal, state and local government web resources and services.